User: anonymous   Login
Location: Unspecified
(0.0000°N, 0.0000°E)
Time: 19:08:36
(UTC+00:00)
Language:

STARLINK-2428 - Orbit

View from above orbital plane
View from above orbital plane
View from above satellite
View from above satellite

Ground track
Ground track

The orbit is defined by the following mean orbital elements,

1 48099U          26145.46944808 +.00000000 +00000-0 +97950-4 0 00008
2 48099  53.1585 170.6852 0001257  92.5655 267.5490 15.31691391    07
Epoch (UTC): 25 May 2026 11:16:00
Eccentricity: 0.0001257
inclination: 53.1585°
perigee height: 470 km
apogee height: 472 km
right ascension of ascending node: 170.6852°
argument of perigee: 92.5655°
revolutions per day: 15.31691391
mean anomaly at epoch: 267.5490°

The dashed part of the orbit path shows where the satellite is in the earth's shadow,  

DLR